Flag for Saudi Arabia Weather past 2 weeks in Jeddah, Saudi Arabia

Now
82 °F

Scattered clouds.


Feels Like: 83 °F
Forecast: 74 / 89 °F
Wind: 9 mph from West

Location: Jeddah King Abdul Aziz International Airport

Current Time: Mar 6, 2015 at 12:07:08 PM

Latest Report: Mar 6, 2015 at 11:00 AM


Visibility: N/A

Pressure: 29.92 "Hg

Humidity: 51%

Dew point: 63 °F

Location of JeddahLocation

Historic Weather in Jeddah — Graph

°F

Jeddah temperature yesterday

Maximum temperature yesterday: 86 °F (at 2:00 PM)
Minimum temperature yesterday: 72 °F (at 7:00 AM)
Average temperature yesterday: 78 °F

Past Weeks' High & Low Weather Summary

 TemperatureHumidityPressure
High95 °F (Feb 27, 1:00 PM)83% (Mar 1, 7:00 AM)30.01 "Hg (Mar 1, 7:00 AM)
Low63 °F (Feb 21, 5:00 AM)15% (Feb 27, 1:00 PM)29.74 "Hg (Feb 25, 3:00 AM)
Average78 °F55%29.87 "Hg
* Reported Feb 19 11:00 AM — Mar 6 11:00 AM, Jeddah, Weather by CustomWeather, © 2015

Note: Actual official high and low records may vary slightly from our data, if they occured in-between our weather recording intervals... More about our weather records

Advertising

Jeddah weather history for previous 24 hours

 ConditionsComfort  
Time TempWeatherWind HumidityBarometerVisibility
11:00 AM
Fri, Mar 6
82 °FScattered clouds.9 mph51%29.92 "HgN/A
10:00 AM79 °FScattered clouds.12 mph61%29.89 "HgN/A
9:00 AM79 °FScattered clouds.9 mph65%29.92 "HgN/A
8:00 AM77 °FScattered clouds.5 mph61%29.89 "HgN/A
7:00 AM77 °FBroken clouds.7 mph61%29.89 "HgN/A
6:00 AM75 °FPassing clouds.5 mph69%29.83 "HgN/A
5:00 AM75 °FPassing clouds.5 mph69%29.86 "HgN/A
4:00 AM75 °FPassing clouds.5 mph65%29.86 "HgN/A
3:00 AM77 °FPassing clouds.5 mph69%29.86 "HgN/A
2:00 AM77 °FPassing clouds.9 mph69%29.86 "HgN/A
1:00 AM77 °FPassing clouds.15 mph69%29.89 "Hg10 mi
12:00 AM77 °FClear.14 mph69%29.86 "Hg10 mi
11:00 PM
Thu, Mar 5
77 °FClear.14 mph69%29.89 "Hg10 mi
10:00 PM77 °FClear.12 mph65%29.89 "Hg10 mi
9:00 PM77 °FClear.9 mph61%29.86 "Hg10 mi
8:00 PM77 °FPassing clouds.12 mph61%29.86 "HgN/A
7:00 PM79 °FPassing clouds.12 mph58%29.83 "HgN/A
6:00 PM81 °FScattered clouds.14 mph51%29.83 "HgN/A
5:00 PM82 °FScattered clouds.14 mph48%29.83 "HgN/A
4:00 PM82 °FScattered clouds.14 mph48%29.83 "HgN/A
3:00 PM84 °FScattered clouds.12 mph43%29.80 "HgN/A
2:00 PM86 °FScattered clouds.13 mph40%29.80 "HgN/A
1:00 PM84 °FScattered clouds.14 mph43%29.83 "HgN/A
12:00 PM84 °FScattered clouds.9 mph43%29.86 "HgN/A
Weather by CustomWeather, © 2015

See weather overviewHow to use our weather pages